Weather History for Hutchinson, KS

Change the Weather History Date:

Sunday, December 2, 2012

  Actual Average Record
Temperature  
Mean Temperature 52 °F -  
Max Temperature 68 °F 47 °F 68 °F (2012)
Min Temperature 35 °F 25 °F 16 °F (2006)
Degree Days  
Heating Degree Days 14    
Growing Degree Days 2 (Base 50)    
Moisture  
Dew Point 40 °F    
Average Humidity 70    
Maximum Humidity 92    
Minimum Humidity 35    
Precipitation  
Precipitation 0.00 in - - ()
Sea Level Pressure  
Sea Level Pressure 29.92 in    
Wind  
Wind Speed 6 mph (SSE)    
Max Wind Speed 15 mph    
Max Gust Speed 18 mph    
Visibility 9 miles    
Events      
Averages and records for this station are not official NWS values.
T = Trace of Precipitation, MM = Missing Value Source: NWS Daily Summary

Daily Weather History Graph

Daily Weather History Graph

Search for Another Location

Airport:

Trip Planner

Search our weather history database for the weather conditions in past years. The results will help you decide how hot, cold, wet, or windy it might be!

Date:

Astronomy

Dec. 02, 2012 Rise Set
Actual Time 7:30 AM CST 5:11 PM CST
Civil Twilight 7:01 AM CST 5:40 PM CST
Nautical Twilight 6:28 AM CST 6:13 PM CST
Astronomical Twilight 5:56 AM CST 6:45 PM CST
Moon 8:59 PM CST (12/2) 10:22 AM CST (12/2)
Length of Visible Light 10h 39m
Length of Day
9h 41m
Waning Gibbous, 85% of the Moon is Illuminated
Dec 2
Waning Gibbous
Dec 6
Last Quarter
Dec 13
New
Dec 19
First Quarter
Dec 28
Full

Hourly Weather History & Observations

Time (CST) Temp. Windchill Dew Point Humidity Pressure Visibility Wind Dir Wind Speed Gust Speed Precip Events Conditions
12:52 AM 42.1 °F 38.4 °F 39.9 °F 92% 29.93 in 6.0 mi WNW 5.8 mph - N/A   Clear
1:52 AM 41.0 °F 35.8 °F 37.9 °F 89% 29.94 in 6.0 mi NW 8.1 mph - N/A   Clear
2:52 AM 39.0 °F 34.8 °F 36.0 °F 89% 29.94 in 7.0 mi NW 5.8 mph - N/A   Clear
3:52 AM 42.1 °F 36.6 °F 37.0 °F 82% 29.95 in 9.0 mi NW 9.2 mph - N/A   Clear
4:52 AM 39.0 °F 34.8 °F 35.1 °F 86% 29.96 in 10.0 mi WNW 5.8 mph - N/A   Clear
5:52 AM 36.0 °F - 33.1 °F 89% 29.98 in 9.0 mi Calm Calm - N/A   Clear
6:52 AM 36.0 °F - 33.1 °F 89% 30.01 in 10.0 mi Calm Calm - N/A   Clear
7:52 AM 35.1 °F 32.2 °F 32.0 °F 89% 30.04 in 6.0 mi SSE 3.5 mph - N/A   Clear
8:52 AM 42.1 °F 40.2 °F 39.0 °F 89% 30.04 in 6.0 mi South 3.5 mph - N/A   Clear
9:52 AM 48.9 °F - 39.0 °F 69% 30.04 in 10.0 mi Calm Calm - N/A   Clear
10:52 AM 54.0 °F - 39.9 °F 59% 30.03 in 10.0 mi South 5.8 mph - N/A   Clear
11:52 AM 60.1 °F - 39.9 °F 47% 30.01 in 10.0 mi Calm Calm - N/A   Clear
12:52 PM 64.9 °F - 39.0 °F 39% 29.94 in 10.0 mi South 3.5 mph - N/A   Clear
1:52 PM 68.0 °F - 39.0 °F 35% 29.91 in 10.0 mi SE 8.1 mph - N/A   Clear
2:52 PM 66.9 °F - 39.9 °F 37% 29.89 in 10.0 mi ESE 8.1 mph - N/A   Clear
3:52 PM 66.9 °F - 42.1 °F 40% 29.86 in 10.0 mi SSE 15.0 mph 18.4 mph N/A   Clear
4:52 PM 62.1 °F - 45.0 °F 53% 29.87 in 10.0 mi SSE 10.4 mph - N/A   Clear
6:52 PM 53.1 °F - 44.1 °F 71% 29.86 in 10.0 mi SSE 9.2 mph - N/A   Clear
7:52 PM 53.1 °F - 44.1 °F 71% 29.84 in 10.0 mi SSE 9.2 mph - N/A   Clear
8:52 PM 51.1 °F - 43.0 °F 74% 29.81 in 10.0 mi SE 6.9 mph - N/A   Clear
9:52 PM 52.0 °F - 42.1 °F 69% 29.79 in 10.0 mi ESE 9.2 mph - N/A   Clear
10:52 PM 53.1 °F - 44.1 °F 71% 29.75 in 10.0 mi SE 8.1 mph - N/A   Clear
11:52 PM 57.0 °F - 50.0 °F 77% 29.73 in 10.0 mi South 15.0 mph - N/A   Clear